Location: Fours
(44.3167°N, 6.7000°E)
Time: 06:29:06
(UTC+00:00)

Cosmos 1680 Rocket - Pass Details

Date: 30 November 2020
Orbit: 760 x 781 km, 74.1° (Epoch: 27 January)

Event Time Altitude Azimuth Distance (km) Brightness Sun altitude
Rises 18:17:23 0° 194° (SSW) 3,227 7.0 -24.7°
Reaches altitude 10° 18:19:44 10° 193° (SSW) 2,308 6.2 -25.1°
Enters shadow 18:24:37 72° 148° (SSE) 816 3.4 -26.0°
